星链-5687 (STARLINK-5687 )

导读 | 豆包AI

STARLINK-5687是美国太空探索技术公司SpaceX星链(Starlink)卫星互联网项目的卫星,由美国于2023年2月2日发射,属于星链计划第二批次组网卫星,主要用于提供全球范围的高速卫星互联网接入服务,目前已在轨道运行超3年,是星链星座组网中重要组成单元。

基本信息
目录编号:
55473
目录名称:
STARLINK-5687
国际标识:
2023-015AA
轨道中心:
EARTH
卫星名称:
星链-5687
卫星全名:
星链-5687 (STARLINK-5687 )
卫星状态:
已陨落 最后检测时间 2025-12-01
发射日期:
2023-02-02 UTC
国别 :
美国 (US)
星等 :
--
轨道信息
数据来源 国际轨道数据
星历时间: 2025-12-01T12:21:13+0800
轨道信息已过期104天
半长轴: 6539.578km
偏心率: 0.0002944
轨道倾角: 42.963°
近地点辐角 135.865°
升交点赤经 315.834°
平近点角 224.248°
近地点: 159.517km
远地点: 163.369km
周期: 87.717分钟
每日圈数: 16.416412
详细信息
固有亮度:
5
最大亮度:
2.5
卫星平台:
Starlink v1.5
覆盖范围:
全球
运营商:
太空探索技术公司
运营商所在国:
美国
制造商(研发单位):
太空探索技术公司
制造商所在国:
美国
使用方式:
暂无
卫星简介
星链(Starlink)计划是由太空探索技术公司(SpaceX)提出的一个巨型低轨卫星互联网星座项目,计划在2019年至2024年间在太空搭建由约1.2万颗卫星组成的“星链”网络,其中1584颗将部署在地球上空550千米处的近地轨道,并从2020年开始工作。该卫星仍在工作。